Orbital Elements at Epoch 2459200.5 (2020-Dec-17.0) TDB
Reference: JPL 13 (heliocentric ecliptic J2000)
Element | Value | Uncertainty (1-sigma) | Units |
e | .183572929361338 | 4.8275e-08 | |
a | 2.309789035229926 | 8.633e-09 | au |
q | 1.88577429582607 | 1.1135e-07 | au |
i | 5.992135114518498 | 5.4961e-06 | deg |
node | 160.6573304413255 | 3.7397e-05 | deg |
peri | 355.2487969861082 | 3.9017e-05 | deg |
M | 194.5200208468901 | 1.2062e-05 | deg |
tp | 2459789.886055748436 (2022-Jul-29.38605575) | 4.4379e-05 | TDB |
period | 1282.20332849522 3.51 | 7.1885e-06 1.968e-08 | d yr |
n | .2807667021286649 | 1.5741e-09 | deg/d |
Q | 2.733803774633782 | 1.0218e-08 | au |
|
| | Orbit Determination Parameters
Additional Information
|